| time (UTC) | temp C | wind direction | speed KPH | gust KPH | rain 1hr cm | rain 24hr cm | rain mn cm | humidity % | barometer mb |
| 20260506221853 | 15 | 9 | 1.6 | 3.2 | 0.00 | 0.43 | 0.43 | 98 | 1004.3 |
| 20260506221350 | 15 | 17 | 1.6 | 3.2 | 0.00 | 0.43 | 0.43 | 98 | 1004.3 |
| 20260506220848 | 15 | 353 | 1.6 | 3.2 | 0.00 | 0.43 | 0.43 | 97 | 1004.3 |
| 20260506220343 | 15 | 9 | 1.6 | 3.2 | 0.00 | 0.43 | 0.43 | 97 | 1004.4 |
| 20260506215840 | 15 | 345 | 0.0 | 3.2 | 0.05 | 0.43 | 0.43 | 97 | 1004.5 |
| 20260506215336 | 15 | 9 | 1.6 | 3.2 | 0.05 | 0.43 | 0.43 | 97 | 1004.5 |
| 20260506214832 | 15 | 338 | 0.0 | 3.2 | 0.00 | 0.41 | 0.41 | 97 | 1004.6 |
| 20260506214329 | 15 | 356 | 1.6 | 3.2 | 0.05 | 0.41 | 0.41 | 97 | 1004.4 |
| 20260506213827 | 15 | 2 | 1.6 | 3.2 | 0.18 | 0.41 | 0.41 | 97 | 1004.4 |
| 20260506213324 | 15 | 346 | 1.6 | 3.2 | 0.23 | 0.41 | 0.41 | 97 | 1004.4 |
| 20260506212821 | 15 | 333 | 1.6 | 3.2 | 0.18 | 0.38 | 0.38 | 97 | 1004.4 |
| 20260506212317 | 15 | 355 | 1.6 | 3.2 | 0.05 | 0.36 | 0.36 | 97 | 1004.5 |
| 20260506211812 | 15 | 21 | 1.6 | 3.2 | 0.00 | 0.36 | 0.36 | 97 | 1004.5 |
| 20260506211308 | 15 | 24 | 1.6 | 3.2 | 0.05 | 0.36 | 0.36 | 97 | 1004.4 |
| 20260506210807 | 15 | 20 | 3.2 | 4.8 | 0.05 | 0.36 | 0.36 | 97 | 1004.6 |
| 20260506210303 | 15 | 126 | 0.0 | 3.2 | 0.00 | 0.33 | 0.33 | 97 | 1004.5 |
| 20260506205800 | 15 | 339 | 0.0 | 3.2 | 0.00 | 0.33 | 0.33 | 97 | 1004.4 |
| 20260506205255 | 15 | 359 | 1.6 | 3.2 | 0.00 | 0.33 | 0.33 | 97 | 1004.5 |
| 20260506204752 | 15 | 38 | 0.0 | 6.4 | 0.00 | 0.33 | 0.33 | 97 | 1004.7 |
| 20260506204250 | 15 | 351 | 1.6 | 3.2 | 0.00 | 0.33 | 0.33 | 97 | 1004.7 |
| 20260506203748 | 15 | 21 | 0.0 | 3.2 | 0.00 | 0.33 | 0.33 | 97 | 1004.9 |
| 20260506203244 | 15 | 353 | 0.0 | 3.2 | 0.05 | 0.33 | 0.33 | 97 | 1004.7 |
| 20260506202742 | 15 | 2 | 1.6 | 3.2 | 0.05 | 0.33 | 0.33 | 96 | 1004.8 |
| 20260506202238 | 15 | 354 | 0.0 | 3.2 | 0.05 | 0.33 | 0.33 | 96 | 1004.9 |
| 20260506201735 | 15 | 17 | 1.6 | 3.2 | 0.00 | 0.33 | 0.33 | 96 | 1005.0 |
| 20260506201232 | 15 | 4 | 3.2 | 3.2 | 0.00 | 0.33 | 0.33 | 96 | 1004.9 |
| 20260506200729 | 15 | 16 | 1.6 | 3.2 | 0.05 | 0.33 | 0.33 | 96 | 1004.9 |
| 20260506200226 | 15 | 33 | 1.6 | 3.2 | 0.13 | 0.33 | 0.33 | 96 | 1005.2 |
| 20260506195722 | 15 | 351 | 3.2 | 3.2 | 0.05 | 0.30 | 0.30 | 95 | 1005.2 |
| 20260506195218 | 15 | 6 | 3.2 | 4.8 | 0.00 | 0.30 | 0.30 | 95 | 1005.2 |
| 20260506194716 | 15 | 348 | 3.2 | 4.8 | 0.00 | 0.30 | 0.30 | 95 | 1005.2 |
| 20260506194212 | 15 | 78 | 0.0 | 3.2 | 0.00 | 0.30 | 0.30 | 95 | 1005.2 |
| 20260506193710 | 15 | 355 | 3.2 | 4.8 | 0.05 | 0.30 | 0.30 | 95 | 1005.1 |
| 20260506193207 | 15 | 18 | 1.6 | 1.6 | 0.05 | 0.30 | 0.30 | 95 | 1005.3 |
| 20260506192704 | 15 | 7 | 0.0 | 3.2 | 0.00 | 0.28 | 0.28 | 95 | 1005.4 |
| 20260506192200 | 15 | 6 | 3.2 | 3.2 | 0.00 | 0.28 | 0.28 | 94 | 1005.4 |
| 20260506191657 | 15 | 34 | 0.0 | 3.2 | 0.00 | 0.28 | 0.28 | 95 | 1005.4 |
| 20260506191153 | 15 | 358 | 1.6 | 3.2 | 0.00 | 0.28 | 0.28 | 94 | 1005.4 |
| 20260506190650 | 15 | 151 | 1.6 | 3.2 | 0.05 | 0.28 | 0.28 | 95 | 1005.4 |
| 20260506190147 | 15 | 27 | 0.0 | 4.8 | 0.05 | 0.28 | 0.28 | 94 | 1005.5 |
| 20260506185644 | 15 | 6 | 4.8 | 4.8 | 0.00 | 0.28 | 0.28 | 94 | 1005.4 |
| 20260506185140 | 15 | 335 | 1.6 | 4.8 | 0.00 | 0.28 | 0.28 | 94 | 1005.5 |
| 20260506184638 | 15 | 107 | 0.0 | 6.4 | 0.00 | 0.28 | 0.28 | 94 | 1005.6 |
| 20260506184135 | 15 | 139 | 3.2 | 4.8 | 0.05 | 0.28 | 0.28 | 94 | 1005.7 |
| 20260506183631 | 15 | 87 | 3.2 | 4.8 | 0.05 | 0.28 | 0.28 | 94 | 1005.9 |
| 20260506183127 | 15 | 13 | 0.0 | 3.2 | 0.05 | 0.28 | 0.28 | 94 | 1005.8 |
| 20260506182625 | 15 | 9 | 4.8 | 6.4 | 0.13 | 0.28 | 0.28 | 94 | 1005.7 |
| 20260506182122 | 15 | 13 | 3.2 | 3.2 | 0.13 | 0.25 | 0.25 | 93 | 1005.8 |
| 20260506181620 | 15 | 88 | 0.0 | 4.8 | 0.13 | 0.23 | 0.23 | 93 | 1005.9 |
| 20260506181117 | 15 | 160 | 0.0 | 4.8 | 0.13 | 0.23 | 0.23 | 92 | 1005.9 |
| 20260506180613 | 15 | 144 | 0.0 | 4.8 | 0.13 | 0.23 | 0.23 | 92 | 1005.8 |
| 20260506180110 | 15 | 143 | 1.6 | 6.4 | 0.13 | 0.20 | 0.20 | 93 | 1005.9 |
| 20260506175606 | 15 | 175 | 0.0 | 4.8 | 0.13 | 0.20 | 0.20 | 92 | 1006.0 |
| 20260506175102 | 15 | 337 | 0.0 | 3.2 | 0.18 | 0.18 | 0.18 | 92 | 1005.8 |
| 20260506174601 | 15 | 29 | 0.0 | 4.8 | 0.23 | 0.18 | 0.18 | 91 | 1006.0 |
| 20260506174057 | 16 | 339 | 1.6 | 3.2 | 0.18 | 0.15 | 0.15 | 91 | 1005.9 |
| 20260506173555 | 16 | 128 | 0.0 | 3.2 | 0.23 | 0.15 | 0.15 | 89 | 1005.9 |
| 20260506173051 | 16 | 4 | 3.2 | 4.8 | 0.30 | 0.13 | 0.13 | 89 | 1006.2 |
| 20260506172549 | 16 | 126 | 0.0 | 3.2 | 0.23 | 0.10 | 0.10 | 88 | 1006.3 |
| 20260506172045 | 16 | 24 | 1.6 | 3.2 | 0.18 | 0.08 | 0.08 | 87 | 1006.4 |
| 20260506171543 | 17 | 23 | 3.2 | 4.8 | 0.18 | 0.05 | 0.05 | 86 | 1006.5 |
| 20260506171041 | 17 | 28 | 3.2 | 4.8 | 0.18 | 0.05 | 0.05 | 83 | 1006.8 |
| 20260506170538 | 17 | 2 | 3.2 | 4.8 | 0.13 | 0.03 | 0.03 | 80 | 1006.9 |
| 20260506170035 | 17 | 345 | 3.2 | 3.2 | 0.05 | 0.03 | 0.03 | 77 | 1006.9 |
| 20260506165533 | 18 | 189 | 0.0 | 3.2 | 0.00 | 0.00 | 0.00 | 75 | 1006.9 |
| 20260506165029 | 18 | 37 | 1.6 | 3.2 | 0.00 | 0.00 | 0.00 | 74 | 1007.0 |
| 20260506164526 | 18 | 27 | 3.2 | 8.0 | 0.00 | 0.00 | 0.00 | 73 | 1006.9 |
| 20260506164024 | 18 | 1 | 0.0 | 3.2 | 0.00 | 0.00 | 0.00 | 71 | 1006.8 |
| 20260506163519 | 18 | 39 | 0.0 | 3.2 | 0.05 | 0.00 | 0.00 | 70 | 1006.6 |
| 20260506163015 | 19 | 118 | 1.6 | 6.4 | 0.05 | 0.00 | 0.00 | 70 | 1006.9 |
| 20260506162512 | 19 | 26 | 1.6 | 11.3 | 0.00 | 0.00 | 0.00 | 70 | 1006.5 |
| 20260506162009 | 19 | 12 | 3.2 | 3.2 | 0.00 | 0.00 | 0.00 | 70 | 1006.7 |
| 20260506161507 | 20 | 69 | 0.0 | 3.2 | 0.00 | 0.00 | 0.00 | 67 | 1006.5 |
| 20260506161003 | 20 | 329 | 3.2 | 4.8 | 0.00 | 0.00 | 0.00 | 66 | 1006.4 |
| 20260506160501 | 20 | 353 | 3.2 | 6.4 | 0.00 | 0.00 | 0.00 | 67 | 1006.7 |
| 20260506155958 | 20 | 349 | 0.0 | 6.4 | 0.00 | 0.00 | 0.00 | 66 | 1006.7 |
| 20260506155457 | 20 | 25 | 3.2 | 9.7 | 0.00 | 0.00 | 0.00 | 66 | 1006.9 |
| 20260506153628 | 20 | 27 | 0.0 | 4.8 | 0.00 | 0.00 | 0.00 | 67 | 1007.3 |
| 20260506153125 | 20 | 26 | 4.8 | 6.4 | 0.00 | 0.00 | 0.00 | 66 | 1007.0 |
| 20260506152622 | 20 | 353 | 1.6 | 4.8 | 0.00 | 0.00 | 0.00 | 66 | 1007.1 |
| 20260506152120 | 20 | 11 | 3.2 | 3.2 | 0.00 | 0.00 | 0.00 | 66 | 1007.1 |
| 20260506151618 | 20 | 337 | 3.2 | 4.8 | 0.00 | 0.00 | 0.00 | 66 | 1007.3 |
| 20260506151115 | 20 | 78 | 3.2 | 4.8 | 0.00 | 0.00 | 0.00 | 67 | 1007.1 |
| 20260506150612 | 20 | 345 | 3.2 | 6.4 | 0.00 | 0.00 | 0.00 | 68 | 1007.1 |
| 20260506150109 | 20 | 343 | 1.6 | 4.8 | 0.00 | 0.00 | 0.00 | 67 | 1007.2 |
| 20260506145606 | 20 | 187 | 1.6 | 9.7 | 0.00 | 0.00 | 0.00 | 68 | 1007.2 |
| 20260506145103 | 20 | 112 | 3.2 | 4.8 | 0.00 | 0.00 | 0.00 | 68 | 1007.1 |
| 20260506144559 | 19 | 23 | 0.0 | 4.8 | 0.00 | 0.00 | 0.00 | 69 | 1007.1 |
| 20260506144056 | 19 | 9 | 1.6 | 6.4 | 0.00 | 0.00 | 0.00 | 70 | 1007.3 |
| 20260506143554 | 19 | 118 | 3.2 | 6.4 | 0.00 | 0.00 | 0.00 | 71 | 1007.3 |
| 20260506143052 | 18 | 348 | 3.2 | 3.2 | 0.00 | 0.00 | 0.00 | 72 | 1007.5 |
| 20260506142550 | 18 | 286 | 1.6 | 6.4 | 0.00 | 0.00 | 0.00 | 71 | 1007.5 |
| 20260506142048 | 18 | 104 | 0.0 | 8.0 | 0.00 | 0.00 | 0.00 | 72 | 1007.5 |
| 20260506141545 | 18 | 29 | 3.2 | 6.4 | 0.00 | 0.00 | 0.00 | 72 | 1007.5 |
| 20260506141043 | 18 | 14 | 4.8 | 4.8 | 0.00 | 0.00 | 0.00 | 74 | 1007.3 |
| 20260506140541 | 18 | 5 | 3.2 | 4.8 | 0.00 | 0.00 | 0.00 | 75 | 1007.3 |
| 20260506140038 | 17 | 345 | 0.0 | 4.8 | 0.00 | 0.00 | 0.00 | 76 | 1007.3 |
| 20260506135534 | 17 | 337 | 0.0 | 3.2 | 0.00 | 0.00 | 0.00 | 77 | 1007.4 |
| 20260506135030 | 17 | 346 | 0.0 | 3.2 | 0.00 | 0.00 | 0.00 | 78 | 1007.5 |
| 20260506134527 | 17 | 321 | 0.0 | 3.2 | 0.00 | 0.00 | 0.00 | 79 | 1007.6 |
| 20260506134023 | 17 | 350 | 3.2 | 4.8 | 0.00 | 0.00 | 0.00 | 79 | 1007.4 |
| 20260506133521 | 17 | 340 | 4.8 | 4.8 | 0.00 | 0.00 | 0.00 | 80 | 1007.3 |
| 20260506133017 | 17 | 27 | 4.8 | 4.8 | 0.00 | 0.00 | 0.00 | 79 | 1007.5 |
| 20260506132514 | 16 | 89 | 3.2 | 3.2 | 0.00 | 0.00 | 0.00 | 80 | 1007.3 |
| 20260506132012 | 16 | 18 | 4.8 | 6.4 | 0.00 | 0.00 | 0.00 | 81 | 1007.4 |
| 20260506131509 | 16 | 18 | 3.2 | 3.2 | 0.00 | 0.00 | 0.00 | 81 | 1007.5 |
| 20260506131005 | 16 | 9 | 1.6 | 3.2 | 0.00 | 0.00 | 0.00 | 81 | 1007.4 |
| 20260506130502 | 16 | 158 | 0.0 | 3.2 | 0.00 | 0.00 | 0.00 | 82 | 1007.6 |
| 20260506125959 | 16 | 6 | 1.6 | 3.2 | 0.00 | 0.00 | 0.00 | 82 | 1007.8 |
| 20260506125458 | 16 | 345 | 1.6 | 3.2 | 0.00 | 0.00 | 0.00 | 83 | 1007.7 |
| 20260506124955 | 15 | 341 | 0.0 | 3.2 | 0.00 | 0.00 | 0.00 | 83 | 1007.8 |
| 20260506124453 | 15 | 337 | 1.6 | 4.8 | 0.00 | 0.00 | 0.00 | 84 | 1007.8 |
| 20260506123951 | 15 | 91 | 0.0 | 1.6 | 0.00 | 0.00 | 0.00 | 84 | 1008.0 |
| 20260506123449 | 15 | 329 | 1.6 | 1.6 | 0.00 | 0.00 | 0.00 | 84 | 1008.2 |
| 20260506122946 | 15 | 347 | 1.6 | 3.2 | 0.00 | 0.00 | 0.00 | 84 | 1008.1 |
| 20260506122443 | 15 | 21 | 0.0 | 3.2 | 0.00 | 0.00 | 0.00 | 85 | 1008.2 |
| 20260506121941 | 15 | 14 | 0.0 | 3.2 | 0.00 | 0.00 | 0.00 | 85 | 1008.3 |
| 20260506121438 | 15 | 354 | 3.2 | 3.2 | 0.00 | 0.00 | 0.00 | 85 | 1008.1 |
| 20260506120934 | 15 | 341 | 3.2 | 3.2 | 0.00 | 0.00 | 0.00 | 86 | 1008.1 |
| 20260506120432 | 15 | 4 | 0.0 | 3.2 | 0.00 | 0.00 | 0.00 | 86 | 1008.2 |
| 20260506115929 | 15 | 354 | 3.2 | 3.2 | 0.00 | 0.00 | 0.00 | 86 | 1008.1 |
| 20260506115427 | 15 | 4 | 3.2 | 4.8 | 0.00 | 0.00 | 0.00 | 86 | 1008.0 |
| 20260506114925 | 14 | 338 | 1.6 | 3.2 | 0.00 | 0.00 | 0.00 | 87 | 1008.0 |
| 20260506114422 | 14 | 41 | 1.6 | 6.4 | 0.00 | 0.00 | 0.00 | 87 | 1008.2 |
| 20260506113921 | 14 | 358 | 3.2 | 3.2 | 0.00 | 0.00 | 0.00 | 88 | 1008.1 |
| 20260506113418 | 14 | 5 | 3.2 | 3.2 | 0.00 | 0.00 | 0.00 | 88 | 1008.2 |
| 20260506112914 | 14 | 359 | 3.2 | 4.8 | 0.00 | 0.00 | 0.00 | 89 | 1008.2 |
| 20260506112412 | 13 | 350 | 3.2 | 4.8 | 0.00 | 0.00 | 0.00 | 90 | 1008.0 |
| 20260506111909 | 13 | 346 | 3.2 | 4.8 | 0.00 | 0.00 | 0.00 | 91 | 1008.0 |
| 20260506111407 | 13 | 334 | 4.8 | 4.8 | 0.00 | 0.00 | 0.00 | 93 | 1008.1 |
| 20260506110904 | 12 | 346 | 3.2 | 4.8 | 0.00 | 0.00 | 0.00 | 95 | 1008.1 |
| 20260506110402 | 12 | 321 | 1.6 | 3.2 | 0.00 | 0.00 | 0.00 | 96 | 1008.1 |
| 20260506105858 | 12 | 355 | 4.8 | 4.8 | 0.00 | 0.00 | 0.00 | 96 | 1008.2 |
| 20260506105355 | 12 | 348 | 3.2 | 4.8 | 0.00 | 0.00 | 0.00 | 96 | 1008.3 |
| 20260506104852 | 12 | 348 | 3.2 | 4.8 | 0.00 | 0.00 | 0.00 | 96 | 1008.3 |
| 20260506104350 | 12 | 334 | 3.2 | 4.8 | 0.00 | 0.00 | 0.00 | 96 | 1008.2 |
| 20260506103847 | 11 | 345 | 4.8 | 4.8 | 0.00 | 0.00 | 0.00 | 96 | 1008.1 |
| 20260506103345 | 11 | 350 | 4.8 | 4.8 | 0.00 | 0.00 | 0.00 | 95 | 1008.3 |
| 20260506102842 | 11 | 334 | 3.2 | 4.8 | 0.00 | 0.00 | 0.00 | 96 | 1008.1 |
| 20260506102340 | 11 | 339 | 3.2 | 4.8 | 0.00 | 0.00 | 0.00 | 96 | 1008.0 |
| 20260506101837 | 11 | 334 | 3.2 | 4.8 | 0.00 | 0.00 | 0.00 | 96 | 1007.9 |
| 20260506101333 | 11 | 345 | 3.2 | 4.8 | 0.00 | 0.00 | 0.00 | 95 | 1008.1 |
| 20260506100831 | 11 | 337 | 3.2 | 3.2 | 0.00 | 0.00 | 0.00 | 95 | 1008.0 |
| 20260506100330 | 11 | 339 | 3.2 | 4.8 | 0.00 | 0.00 | 0.00 | 95 | 1008.0 |
| 20260506095827 | 11 | 335 | 3.2 | 4.8 | 0.00 | 0.00 | 0.00 | 95 | 1008.0 |
| 20260506095324 | 11 | 342 | 4.8 | 4.8 | 0.00 | 0.00 | 0.00 | 95 | 1008.1 |
| 20260506094821 | 11 | 331 | 3.2 | 4.8 | 0.00 | 0.00 | 0.00 | 95 | 1007.9 |
| 20260506094319 | 11 | 334 | 3.2 | 4.8 | 0.00 | 0.00 | 0.00 | 95 | 1008.1 |
| 20260506093817 | 11 | 347 | 4.8 | 4.8 | 0.00 | 0.00 | 0.00 | 95 | 1007.8 |
| 20260506093314 | 11 | 341 | 4.8 | 4.8 | 0.00 | 0.00 | 0.00 | 94 | 1007.9 |
| 20260506092812 | 11 | 344 | 3.2 | 4.8 | 0.00 | 0.00 | 0.00 | 94 | 1007.9 |
| 20260506092309 | 11 | 325 | 3.2 | 4.8 | 0.00 | 0.00 | 0.00 | 94 | 1007.8 |
| 20260506091806 | 11 | 334 | 3.2 | 4.8 | 0.00 | 0.00 | 0.00 | 94 | 1007.8 |
| 20260506091304 | 11 | 335 | 3.2 | 4.8 | 0.00 | 0.00 | 0.00 | 94 | 1008.0 |
| 20260506090802 | 11 | 333 | 4.8 | 4.8 | 0.00 | 0.00 | 0.00 | 94 | 1008.0 |
| 20260506090258 | 11 | 343 | 3.2 | 4.8 | 0.00 | 0.00 | 0.00 | 94 | 1008.1 |
| 20260506085755 | 11 | 336 | 4.8 | 4.8 | 0.00 | 0.00 | 0.00 | 93 | 1007.8 |
| 20260506085251 | 12 | 341 | 3.2 | 4.8 | 0.00 | 0.00 | 0.00 | 93 | 1007.9 |
| 20260506084748 | 12 | 336 | 3.2 | 3.2 | 0.00 | 0.00 | 0.00 | 93 | 1008.0 |
| 20260506084244 | 12 | 334 | 3.2 | 4.8 | 0.00 | 0.00 | 0.00 | 93 | 1008.0 |
| 20260506083741 | 12 | 334 | 4.8 | 4.8 | 0.00 | 0.00 | 0.00 | 93 | 1008.1 |
| 20260506083239 | 12 | 336 | 3.2 | 4.8 | 0.00 | 0.00 | 0.00 | 92 | 1008.1 |
| 20260506082736 | 12 | 339 | 3.2 | 4.8 | 0.00 | 0.00 | 0.00 | 92 | 1008.2 |
| 20260506082231 | 12 | 345 | 3.2 | 4.8 | 0.00 | 0.00 | 0.00 | 92 | 1008.0 |
| 20260506081730 | 12 | 335 | 3.2 | 4.8 | 0.00 | 0.00 | 0.00 | 92 | 1008.1 |
| 20260506081227 | 12 | 339 | 3.2 | 4.8 | 0.00 | 0.00 | 0.00 | 91 | 1008.0 |
| 20260506080725 | 12 | 338 | 3.2 | 4.8 | 0.00 | 0.00 | 0.00 | 91 | 1008.1 |
| 20260506080221 | 12 | 338 | 3.2 | 4.8 | 0.00 | 0.00 | 0.00 | 91 | 1008.0 |
| 20260506073205 | 12 | 337 | 3.2 | 3.2 | 0.00 | 0.00 | 0.00 | 90 | 1008.0 |
| 20260506072702 | 12 | 352 | 3.2 | 3.2 | 0.00 | 0.00 | 0.00 | 89 | 1008.0 |
| 20260506072159 | 12 | 343 | 3.2 | 4.8 | 0.00 | 0.00 | 0.00 | 89 | 1008.2 |
| 20260506071657 | 12 | 349 | 3.2 | 4.8 | 0.00 | 0.00 | 0.00 | 89 | 1008.1 |
| 20260506071155 | 12 | 359 | 4.8 | 6.4 | 0.00 | 0.00 | 0.00 | 88 | 1008.1 |
| 20260506070651 | 12 | 330 | 3.2 | 4.8 | 0.00 | 0.00 | 0.00 | 88 | 1008.1 |
| 20260506070148 | 12 | 346 | 4.8 | 4.8 | 0.00 | 0.00 | 0.00 | 88 | 1008.1 |
| 20260506062125 | 13 | 346 | 4.8 | 4.8 | 0.00 | 0.00 | 0.00 | 83 | 1007.9 |
| 20260506061621 | 13 | 342 | 4.8 | 4.8 | 0.00 | 0.00 | 0.00 | 83 | 1007.9 |
| 20260506061119 | 13 | 338 | 4.8 | 4.8 | 0.00 | 0.00 | 0.00 | 83 | 1007.9 |
| 20260506060617 | 13 | 333 | 3.2 | 4.8 | 0.00 | 0.00 | 0.00 | 83 | 1007.8 |
| 20260506060114 | 13 | 342 | 3.2 | 4.8 | 0.00 | 0.00 | 0.00 | 82 | 1007.9 |
| 20260506051046 | 14 | 345 | 4.8 | 4.8 | 0.00 | 0.00 | 0.00 | 80 | 1008.3 |
| 20260506050544 | 14 | 338 | 4.8 | 6.4 | 0.00 | 0.00 | 0.00 | 80 | 1008.1 |
| 20260506045034 | 14 | 334 | 3.2 | 3.2 | 0.00 | 0.00 | 0.00 | 81 | 1008.1 |
| 20260506044532 | 14 | 346 | 3.2 | 4.8 | 0.00 | 0.00 | 0.00 | 81 | 1008.3 |
| 20260506044029 | 15 | 346 | 3.2 | 4.8 | 0.00 | 0.00 | 0.00 | 80 | 1008.1 |
| 20260506043526 | 15 | 319 | 3.2 | 4.8 | 0.00 | 0.00 | 0.00 | 80 | 1008.2 |
| 20260506043024 | 15 | 356 | 3.2 | 4.8 | 0.00 | 0.00 | 0.00 | 80 | 1008.2 |
| 20260506042523 | 15 | 342 | 3.2 | 4.8 | 0.00 | 0.00 | 0.00 | 80 | 1008.1 |
| 20260506042021 | 15 | 353 | 3.2 | 4.8 | 0.00 | 0.00 | 0.00 | 81 | 1008.3 |
| 20260506041519 | 15 | 336 | 3.2 | 6.4 | 0.00 | 0.00 | 0.00 | 80 | 1008.2 |
| 20260506041015 | 15 | 339 | 4.8 | 4.8 | 0.00 | 0.00 | 0.00 | 78 | 1008.2 |
| 20260506040514 | 15 | 340 | 3.2 | 4.8 | 0.00 | 0.00 | 0.00 | 78 | 1008.2 |
| 20260506040009 | 15 | 343 | 3.2 | 6.4 | 0.00 | 0.00 | 0.00 | 78 | 1008.2 |
| 20260506035506 | 15 | 319 | 3.2 | 4.8 | 0.00 | 0.00 | 0.00 | 77 | 1008.2 |
| 20260506035003 | 15 | 335 | 4.8 | 4.8 | 0.00 | 0.00 | 0.00 | 77 | 1008.4 |
| 20260506034500 | 15 | 339 | 3.2 | 4.8 | 0.00 | 0.00 | 0.00 | 77 | 1008.3 |
| 20260506033957 | 15 | 344 | 3.2 | 4.8 | 0.00 | 0.00 | 0.00 | 77 | 1008.4 |
| 20260506033455 | 15 | 338 | 3.2 | 4.8 | 0.00 | 0.00 | 0.00 | 77 | 1008.3 |
| 20260506032951 | 15 | 338 | 4.8 | 4.8 | 0.00 | 0.00 | 0.00 | 76 | 1008.3 |
| 20260506032449 | 15 | 333 | 3.2 | 4.8 | 0.00 | 0.00 | 0.00 | 75 | 1008.4 |
| 20260506031945 | 15 | 351 | 3.2 | 4.8 | 0.00 | 0.00 | 0.00 | 75 | 1008.2 |
| 20260506031442 | 15 | 334 | 3.2 | 4.8 | 0.00 | 0.00 | 0.00 | 75 | 1008.4 |
| 20260506030940 | 15 | 348 | 3.2 | 3.2 | 0.00 | 0.00 | 0.00 | 74 | 1008.4 |
| 20260506030438 | 15 | 353 | 3.2 | 3.2 | 0.00 | 0.00 | 0.00 | 74 | 1008.2 |
| 20260506025934 | 15 | 336 | 3.2 | 3.2 | 0.00 | 0.00 | 0.00 | 75 | 1008.3 |
| 20260506025431 | 15 | 342 | 3.2 | 4.8 | 0.00 | 0.00 | 0.00 | 74 | 1008.2 |
| 20260506024928 | 15 | 339 | 3.2 | 3.2 | 0.00 | 0.00 | 0.00 | 74 | 1008.2 |
| 20260506024425 | 15 | 338 | 3.2 | 3.2 | 0.00 | 0.00 | 0.00 | 74 | 1008.0 |
| 20260506023920 | 15 | 345 | 3.2 | 3.2 | 0.00 | 0.00 | 0.00 | 74 | 1008.1 |
| 20260506023418 | 15 | 338 | 3.2 | 4.8 | 0.00 | 0.00 | 0.00 | 74 | 1008.1 |
| 20260506022914 | 15 | 342 | 3.2 | 4.8 | 0.00 | 0.00 | 0.00 | 74 | 1008.0 |
| 20260506022412 | 15 | 339 | 3.2 | 4.8 | 0.00 | 0.00 | 0.00 | 74 | 1008.2 |
| 20260506021910 | 15 | 357 | 3.2 | 4.8 | 0.00 | 0.00 | 0.00 | 74 | 1008.3 |
| 20260506021407 | 15 | 338 | 3.2 | 3.2 | 0.00 | 0.00 | 0.00 | 74 | 1008.0 |
| 20260506020903 | 15 | 334 | 3.2 | 4.8 | 0.00 | 0.00 | 0.00 | 74 | 1008.1 |
| 20260506020402 | 15 | 333 | 3.2 | 4.8 | 0.00 | 0.00 | 0.00 | 74 | 1008.1 |
| 20260506015859 | 15 | 343 | 3.2 | 6.4 | 0.00 | 0.00 | 0.00 | 73 | 1008.1 |
| 20260506015356 | 15 | 340 | 3.2 | 4.8 | 0.00 | 0.00 | 0.00 | 74 | 1008.2 |
| 20260506014853 | 15 | 342 | 3.2 | 4.8 | 0.00 | 0.00 | 0.00 | 74 | 1008.1 |
| 20260506014349 | 16 | 329 | 3.2 | 3.2 | 0.00 | 0.00 | 0.00 | 74 | 1008.0 |
| 20260506013846 | 16 | 334 | 3.2 | 4.8 | 0.00 | 0.00 | 0.00 | 72 | 1008.1 |
| 20260506013344 | 16 | 334 | 3.2 | 4.8 | 0.00 | 0.00 | 0.00 | 71 | 1008.0 |
| 20260506012840 | 16 | 330 | 4.8 | 4.8 | 0.00 | 0.00 | 0.00 | 71 | 1007.9 |
| 20260506012337 | 16 | 349 | 3.2 | 3.2 | 0.00 | 0.00 | 0.00 | 71 | 1007.8 |
| 20260506011834 | 16 | 1 | 3.2 | 3.2 | 0.00 | 0.00 | 0.00 | 70 | 1007.7 |
| 20260506011331 | 16 | 351 | 3.2 | 4.8 | 0.00 | 0.00 | 0.00 | 70 | 1007.6 |
| 20260506010828 | 16 | 343 | 3.2 | 4.8 | 0.00 | 0.00 | 0.00 | 69 | 1007.5 |
| 20260506010326 | 17 | 2 | 3.2 | 4.8 | 0.00 | 0.00 | 0.00 | 69 | 1007.6 |
| 20260506005823 | 17 | 342 | 3.2 | 4.8 | 0.00 | 0.00 | 0.00 | 67 | 1007.5 |
| 20260506005320 | 17 | 343 | 3.2 | 4.8 | 0.00 | 0.00 | 0.00 | 67 | 1007.5 |
| 20260506004816 | 17 | 336 | 3.2 | 3.2 | 0.00 | 0.00 | 0.00 | 66 | 1007.4 |
| 20260506004313 | 17 | 342 | 3.2 | 4.8 | 0.00 | 0.00 | 0.00 | 65 | 1007.3 |
| 20260506003809 | 17 | 347 | 4.8 | 4.8 | 0.00 | 0.00 | 0.00 | 64 | 1007.2 |
| 20260506003306 | 18 | 343 | 3.2 | 4.8 | 0.00 | 0.00 | 0.00 | 64 | 1007.3 |
| 20260506002802 | 18 | 329 | 3.2 | 3.2 | 0.00 | 0.00 | 0.00 | 63 | 1007.2 |
| 20260506002259 | 18 | 347 | 3.2 | 4.8 | 0.00 | 0.00 | 0.00 | 63 | 1007.0 |
| 20260506001754 | 18 | 333 | 0.0 | 3.2 | 0.00 | 0.00 | 0.00 | 62 | 1006.8 |
| 20260506001252 | 18 | 345 | 4.8 | 4.8 | 0.00 | 0.00 | 0.00 | 62 | 1006.8 |
| 20260506000749 | 18 | 342 | 4.8 | 4.8 | 0.00 | 0.00 | 0.00 | 61 | 1006.7 |
| 20260506000247 | 19 | 356 | 3.2 | 4.8 | 0.00 | 0.00 | 0.00 | 60 | 1006.7 |
| 20260505235743 | 19 | 352 | 4.8 | 4.8 | 0.00 | 0.00 | 0.00 | 60 | 1006.5 |
| 20260505235241 | 19 | 8 | 3.2 | 4.8 | 0.00 | 0.00 | 0.00 | 59 | 1006.4 |
| 20260505234737 | 20 | 346 | 3.2 | 4.8 | 0.00 | 0.00 | 0.00 | 58 | 1006.5 |
| 20260505234235 | 20 | 349 | 3.2 | 6.4 | 0.00 | 0.00 | 0.00 | 57 | 1006.5 |
| 20260505233731 | 20 | 355 | 0.0 | 4.8 | 0.00 | 0.00 | 0.00 | 56 | 1006.4 |
| 20260505233230 | 20 | 344 | 3.2 | 3.2 | 0.00 | 0.00 | 0.00 | 56 | 1006.3 |
| 20260505232726 | 20 | 352 | 4.8 | 4.8 | 0.00 | 0.00 | 0.00 | 56 | 1006.2 |
| 20260505232224 | 20 | 357 | 3.2 | 3.2 | 0.00 | 0.00 | 0.00 | 55 | 1006.1 |
| 20260505231720 | 20 | 15 | 3.2 | 4.8 | 0.00 | 0.00 | 0.00 | 55 | 1006.1 |
| 20260505231219 | 21 | 50 | 0.0 | 3.2 | 0.00 | 0.00 | 0.00 | 54 | 1006.1 |
| 20260505230717 | 21 | 18 | 0.0 | 4.8 | 0.00 | 0.00 | 0.00 | 54 | 1006.0 |
| 20260505230213 | 21 | 12 | 1.6 | 3.2 | 0.00 | 0.00 | 0.00 | 53 | 1005.8 |
| 20260505225710 | 21 | 2 | 3.2 | 4.8 | 0.00 | 0.00 | 0.00 | 53 | 1006.1 |
| 20260505225207 | 21 | 34 | 3.2 | 6.4 | 0.00 | 0.00 | 0.00 | 53 | 1005.8 |
| 20260505224702 | 21 | 8 | 4.8 | 4.8 | 0.00 | 0.00 | 0.00 | 53 | 1005.6 |
| 20260505224200 | 21 | 119 | 0.0 | 4.8 | 0.00 | 0.00 | 0.00 | 53 | 1005.6 |
| 20260505223658 | 21 | 71 | 0.0 | 8.0 | 0.00 | 0.00 | 0.00 | 53 | 1005.5 |
| 20260505223153 | 21 | 42 | 1.6 | 4.8 | 0.00 | 0.00 | 0.00 | 54 | 1005.7 |
| 20260505222649 | 21 | 334 | 3.2 | 3.2 | 0.00 | 0.00 | 0.00 | 53 | 1005.4 |